#timestamp,LO_Frequency,Hit,StdDev 
1578607215.5,286047001.1,N
1578607235.4,286047000.3,N
1578607255.2,286046998.4,N
1578607275.0,286046998.4,N
1578607275.9,286046998.4,N
1578607295.8,286046998.8,N
1578607315.6,286046997.1,N
1578607335.5,286046996.5,N
1578607355.3,286046998.7,N
1578607375.1,286046996.9,N
1578607395.9,286046999.1,N
1578607415.7,286046999.1,N
1578607435.5,286046996.7,N
1578607455.4,286046997.1,N
1578607475.2,286046998.7,N
1578607495.1,286046996.5,N
1578607496.0,286046996.5,N
1578607515.8,286046997.4,N
1578607535.6,286046997.8,N
1578607555.5,286046996.3,N
1578607575.3,286046995.8,N
1578607595.1,286046997.3,N
1578607615.9,286046996.6,N
1578607635.7,286046997.1,N
1578607655.6,286046997.3,N
1578607675.4,286046994.9,Y
1578607695.2,286047001.1,P
1578607715.1,286047001.0,N
1578607716.0,286047001.0,N
1578607735.8,286046998.2,N
1578607755.7,286046998.1,N
1578607775.5,286046998.1,N
1578607795.3,286046999.0,N
1578607815.2,286046998.8,N
1578607835.9,286046999.4,N
1578607855.7,286046998.6,N
1578607875.6,286046998.5,N
1578607895.4,286047001.1,N
1578607915.2,286046998.5,N
1578607935.1,286047000.8,N
1578607936.0,286047000.8,N
1578607955.8,286046999.0,N
1578607975.7,286046998.9,N
1578607995.5,286046999.0,N
1578608015.3,286046996.7,N
1578608035.2,286046996.9,N
1578608055.0,286046997.3,N
1578608055.9,286046997.3,N
1578608075.7,286046996.9,N
1578608095.6,286046998.9,N
1578608115.4,286046996.8,N
1578608135.3,286046996.7,N
1578608155.1,286046999.2,N
1578608156.0,286046999.2,N
1578608175.8,286046997.0,N
1578608195.7,286046996.7,N
1578608215.5,286046997.6,N
1578608235.3,286046997.1,N
1578608255.2,286046999.1,N
1578608275.0,286046999.3,N
1578608275.9,286046999.3,N
1578608295.8,286046998.5,N
1578608315.6,286046996.7,N
1578608335.4,286046996.9,N
1578608355.3,286046996.6,N
1578608375.1,286046998.9,N
1578608395.9,286047001.1,N
1578608415.7,286046998.5,N
1578608435.5,286046998.9,N
1578608455.4,286046996.5,N
1578608475.2,286047001.1,N
1578608495.0,286046998.6,N
1578608495.9,286046998.6,N
1578608515.8,286046998.8,N
1578608535.6,286046998.7,N
1578608555.4,286046998.4,N
1578608575.3,286046997.2,N
1578608595.1,286046998.1,N
1578608615.9,286046998.6,N
1578608635.7,286047001.2,N
1578608655.5,286047000.0,N
1578608675.4,286047000.3,N
1578608695.2,286047000.5,N
1578608715.0,286047000.0,N
1578608716.0,286047000.0,N
1578608735.8,286046998.5,N
1578608755.6,286047000.5,N
1578608775.5,286047000.7,N
1578608795.3,286046996.6,N
1578608815.1,286046996.6,N
1578608835.9,286046999.0,N
1578608855.7,286046997.3,N
1578608875.5,286046996.5,N
1578608895.4,286046997.1,N
1578608915.2,286046999.2,N
1578608935.1,286046999.5,N
1578608936.0,286046999.5,N
1578608955.8,286046998.7,N
1578608975.6,286046997.2,N
1578608995.5,286046997.4,N
1578609015.3,286046999.2,N
1578609035.1,286046996.6,N
1578609055.9,286046996.8,N
1578609075.7,286046996.7,N
1578609095.6,286046997.5,N
1578609115.4,286046997.7,N
1578609135.2,286046997.1,N
1578609155.1,286046996.5,N
1578609156.0,286046996.5,N
1578609175.8,286046999.3,N
1578609195.6,286046998.8,N
1578609215.5,286046996.8,N
1578609235.3,286046996.9,N
1578609255.2,286046996.9,N
1578609275.9,286046996.7,N
1578609295.7,286046998.8,N
1578609315.6,286046997.8,N
1578609335.4,286046997.2,N
1578609355.3,286046994.9,Y
1578609375.1,286046997.0,P
1578609376.0,286046997.0,P
1578609395.8,286046997.0,P
1578609415.7,286046995.1,Y
1578609435.5,286046999.6,P
1578609455.4,286047000.3,N
1578609475.2,286047002.5,N
1578609495.0,286047001.9,N
1578609495.9,286047001.9,N
1578609515.8,286047002.3,N
1578609535.6,286047004.1,N
1578609555.4,286047003.7,N
1578609575.3,286047003.5,N
1578609595.1,286047003.7,N
1578609615.9,286047002.1,N
1578609635.7,286047002.6,N
1578609655.5,286047002.1,N
1578609675.4,286047002.7,N
1578609695.2,286047000.5,N
1578609715.0,286046998.5,N
1578609715.9,286046998.5,N
1578609735.8,286046998.7,N
1578609755.6,286047000.6,N
1578609775.5,286047000.1,N
1578609795.3,286047000.2,N
1578609815.1,286047001.0,N
1578609835.9,286047001.5,N
1578609855.7,286047001.0,N
1578609875.5,286047000.1,N
1578609895.4,286047000.7,N
1578609915.2,286047002.1,N
1578609935.1,286047002.2,N
1578609936.0,286047002.2,N
1578609955.8,286047002.0,N
1578609975.6,286047002.6,N
1578609995.5,286047001.9,N
1578610015.3,286047002.5,N
1578610035.1,286046999.8,N
1578610055.9,286047000.0,N
1578610075.7,286047002.8,N
1578610095.6,286047002.1,N
1578610115.4,286047000.1,N
1578610135.2,286047001.1,N
1578610155.1,286046998.4,N
1578610156.0,286046998.4,N
1578610175.8,286047000.7,N
1578610195.6,286047000.0,N
1578610215.5,286047000.6,N
1578610235.3,286047000.9,N
1578610255.2,286046998.3,N
1578610275.9,286047000.4,N
1578610295.7,286046999.4,N
1578610315.6,286046998.2,N
1578610335.4,286047000.3,N
1578610355.2,286047000.0,N
1578610375.1,286047001.4,N
1578610376.0,286047001.4,N
1578610395.8,286047001.5,N
1578610415.7,286047002.1,N
1578610435.5,286047002.1,N
1578610455.3,286047002.0,N
1578610475.2,286047002.6,N
1578610495.0,286047002.0,N
1578610495.9,286047002.0,N
1578610515.7,286047001.6,N
1578610535.6,286047004.3,Y
1578610555.4,286047000.4,P
1578610575.3,286047002.4,P
1578610595.1,286047002.5,N
1578610596.0,286047002.5,N
1578610615.8,286047002.1,N
1578610635.7,286047002.3,N
1578610655.5,286046999.7,N
1578610675.3,286047002.2,N
1578610695.2,286047002.7,N
1578610715.0,286047002.4,N
1578610715.9,286047002.4,N
1578610735.8,286047002.0,N
1578610755.6,286047002.4,N
1578610775.4,286047002.8,Y
1578610795.3,286046998.2,P
